Time,TemperatureF,DewpointF,PressureIn,WindDirection,WindDirectionDegrees,WindSpeedMPH,WindSpeedGustMPH,Humidity,HourlyPrecipIn,Conditions,Clouds,dailyrainin,SoftwareType,DateUTC
2013-11-27 00:03:00,65.6,65.0,29.63,SSW,212,0.0,1.0,99,0.20,,,0.00,weatherlink.com 1.10,2013-11-27 05:03:00,
2013-11-27 00:18:00,66.0,66.0,29.62,SW,222,1.0,3.0,100,0.05,,,0.00,weatherlink.com 1.10,2013-11-27 05:18:00,
2013-11-27 00:33:00,66.6,67.0,29.61,West,271,2.0,4.0,100,0.01,,,0.00,weatherlink.com 1.10,2013-11-27 05:33:00,
2013-11-27 00:48:00,66.3,66.0,29.61,South,187,3.0,6.0,100,0.00,,,0.00,weatherlink.com 1.10,2013-11-27 05:48:00,
2013-11-27 01:03:00,66.3,66.0,29.61,SW,230,5.0,6.0,100,0.00,,,0.00,weatherlink.com 1.10,2013-11-27 06:03:00,
2013-11-27 01:18:00,66.2,66.0,29.61,SW,224,6.0,7.0,100,0.00,,,0.00,weatherlink.com 1.10,2013-11-27 06:18:00,
2013-11-27 01:33:00,66.5,67.0,29.61,WSW,249,1.0,6.0,100,0.00,,,0.00,weatherlink.com 1.10,2013-11-27 06:33:00,
2013-11-27 01:48:00,66.9,67.0,29.60,SSE,155,4.0,8.0,100,0.00,,,0.00,weatherlink.com 1.10,2013-11-27 06:48:00,
2013-11-27 02:03:00,66.9,67.0,29.60,SSW,207,2.0,8.0,100,0.00,,,0.00,weatherlink.com 1.10,2013-11-27 07:03:00,
2013-11-27 02:18:00,66.6,67.0,29.60,SSE,148,2.0,6.0,100,0.00,,,0.00,weatherlink.com 1.10,2013-11-27 07:18:00,
2013-11-27 02:33:00,66.3,66.0,29.59,South,184,3.0,6.0,100,0.00,,,0.00,weatherlink.com 1.10,2013-11-27 07:33:00,
2013-11-27 02:48:00,66.1,66.0,29.60,SW,215,0.0,6.0,100,0.00,,,0.00,weatherlink.com 1.10,2013-11-27 07:48:00,
2013-11-27 03:03:00,66.1,66.0,29.60,SW,226,1.0,5.0,100,0.00,,,0.00,weatherlink.com 1.10,2013-11-27 08:03:00,
2013-11-27 03:18:00,65.9,66.0,29.58,NE,51,1.0,5.0,100,0.00,,,0.00,weatherlink.com 1.10,2013-11-27 08:18:00,
2013-11-27 03:33:00,65.9,66.0,29.57,SE,137,2.0,6.0,100,0.00,,,0.00,weatherlink.com 1.10,2013-11-27 08:33:00,
2013-11-27 03:48:00,65.8,66.0,29.57,SSW,211,4.0,5.0,100,0.00,,,0.00,weatherlink.com 1.10,2013-11-27 08:48:00,
2013-11-27 04:03:00,65.6,66.0,29.56,SW,233,2.0,6.0,100,0.00,,,0.00,weatherlink.com 1.10,2013-11-27 09:03:00,
2013-11-27 04:18:00,66.1,66.0,29.55,SE,140,4.0,6.0,100,0.00,,,0.00,weatherlink.com 1.10,2013-11-27 09:18:00,
2013-11-27 04:33:00,66.3,66.0,29.55,SW,228,3.0,9.0,100,0.00,,,0.00,weatherlink.com 1.10,2013-11-27 09:33:00,
2013-11-27 04:48:00,66.3,66.0,29.54,SW,225,6.0,7.0,100,0.00,,,0.00,weatherlink.com 1.10,2013-11-27 09:48:00,
2013-11-27 05:03:00,66.7,67.0,29.53,South,181,3.0,7.0,100,0.00,,,0.00,weatherlink.com 1.10,2013-11-27 10:03:00,
2013-11-27 05:18:00,66.8,67.0,29.53,West,264,2.0,9.0,100,0.00,,,0.00,weatherlink.com 1.10,2013-11-27 10:18:00,
2013-11-27 05:33:00,66.9,67.0,29.53,SE,138,2.0,7.0,100,0.00,,,0.00,weatherlink.com 1.10,2013-11-27 10:33:00,
2013-11-27 05:48:00,66.9,67.0,29.52,WSW,250,2.0,7.0,100,0.00,,,0.00,weatherlink.com 1.10,2013-11-27 10:48:00,
2013-11-27 06:03:00,66.8,67.0,29.51,SW,226,1.0,5.0,100,0.00,,,0.00,weatherlink.com 1.10,2013-11-27 11:03:00,
2013-11-27 06:19:00,66.7,67.0,29.51,SW,226,1.0,4.0,100,0.00,,,0.00,weatherlink.com 1.10,2013-11-27 11:19:00,
2013-11-27 06:34:00,66.7,67.0,29.51,South,174,2.0,5.0,100,0.00,,,0.00,weatherlink.com 1.10,2013-11-27 11:34:00,
2013-11-27 06:49:00,66.7,67.0,29.50,West,263,1.0,4.0,100,0.00,,,0.00,weatherlink.com 1.10,2013-11-27 11:49:00,
2013-11-27 07:04:00,66.7,67.0,29.50,NE,39,1.0,4.0,100,0.00,,,0.00,weatherlink.com 1.10,2013-11-27 12:04:00,
2013-11-27 07:19:00,66.8,67.0,29.51,South,183,1.0,4.0,99,0.00,,,0.00,weatherlink.com 1.10,2013-11-27 12:19:00,
2013-11-27 07:34:00,65.5,65.0,29.52,NW,307,1.0,4.0,98,0.01,,,0.01,weatherlink.com 1.10,2013-11-27 12:34:00,
2013-11-27 07:49:00,64.1,64.0,29.52,WNW,297,1.0,3.0,98,0.02,,,0.02,weatherlink.com 1.10,2013-11-27 12:49:00,
2013-11-27 08:04:00,63.4,63.0,29.52,WNW,288,2.0,6.0,99,0.02,,,0.02,weatherlink.com 1.10,2013-11-27 13:04:00,
2013-11-27 08:19:00,63.0,63.0,29.53,South,177,1.0,6.0,99,0.02,,,0.02,weatherlink.com 1.10,2013-11-27 13:19:00,
2013-11-27 08:34:00,62.6,62.0,29.54,West,270,1.0,4.0,99,0.03,,,0.04,weatherlink.com 1.10,2013-11-27 13:34:00,
2013-11-27 08:49:00,62.2,62.0,29.54,SW,228,1.0,5.0,99,0.02,,,0.04,weatherlink.com 1.10,2013-11-27 13:49:00,
2013-11-27 09:04:00,61.8,62.0,29.54,WSW,255,0.0,5.0,99,0.03,,,0.05,weatherlink.com 1.10,2013-11-27 14:04:00,
2013-11-27 09:19:00,61.5,61.0,29.54,SE,139,2.0,5.0,99,0.03,,,0.05,weatherlink.com 1.10,2013-11-27 14:19:00,
2013-11-27 09:34:00,61.1,61.0,29.55,WSW,243,1.0,6.0,99,0.01,,,0.05,weatherlink.com 1.10,2013-11-27 14:34:00,
2013-11-27 09:49:00,60.7,61.0,29.56,North,11,1.0,7.0,99,0.02,,,0.06,weatherlink.com 1.10,2013-11-27 14:49:00,
2013-11-27 10:04:00,60.4,60.0,29.57,West,269,1.0,7.0,98,0.01,,,0.06,weatherlink.com 1.10,2013-11-27 15:04:00,
2013-11-27 10:19:00,59.2,58.0,29.59,WSW,243,1.0,8.0,97,0.01,,,0.06,weatherlink.com 1.10,2013-11-27 15:19:00,
2013-11-27 10:34:00,58.6,58.0,29.60,South,181,2.0,7.0,97,0.01,,,0.06,weatherlink.com 1.10,2013-11-27 15:34:00,
2013-11-27 10:49:00,56.6,56.0,29.62,SW,230,7.0,11.0,96,0.00,,,0.06,weatherlink.com 1.10,2013-11-27 15:49:00,
2013-11-27 11:04:00,55.1,54.0,29.62,West,276,3.0,11.0,95,0.00,,,0.06,weatherlink.com 1.10,2013-11-27 16:04:00,
2013-11-27 11:19:00,54.1,53.0,29.62,SW,225,3.0,8.0,94,0.00,,,0.06,weatherlink.com 1.10,2013-11-27 16:19:00,
2013-11-27 11:34:00,53.5,52.0,29.62,ENE,71,3.0,9.0,94,0.00,,,0.06,weatherlink.com 1.10,2013-11-27 16:34:00,
2013-11-27 11:49:00,53.5,52.0,29.63,WSW,246,6.0,9.0,94,0.00,,,0.06,weatherlink.com 1.10,2013-11-27 16:49:00,
2013-11-27 12:04:00,53.3,52.0,29.63,WSW,249,2.0,5.0,94,0.00,,,0.06,weatherlink.com 1.10,2013-11-27 17:04:00,
2013-11-27 12:19:00,53.7,53.0,29.63,WSW,252,2.0,5.0,96,0.00,,,0.06,weatherlink.com 1.10,2013-11-27 17:19:00,
2013-11-27 12:34:00,53.4,52.0,29.65,NE,43,1.0,4.0,95,0.00,,,0.06,weatherlink.com 1.10,2013-11-27 17:34:00,
2013-11-27 12:49:00,51.8,50.0,29.68,WNW,291,2.0,7.0,94,0.02,,,0.08,weatherlink.com 1.10,2013-11-27 17:49:00,
2013-11-27 13:04:00,50.2,49.0,29.68,NNE,23,6.0,8.0,95,0.02,,,0.08,weatherlink.com 1.10,2013-11-27 18:04:00,
2013-11-27 13:20:00,48.8,48.0,29.68,NW,311,1.0,4.0,95,0.02,,,0.08,weatherlink.com 1.10,2013-11-27 18:20:00,
2013-11-27 13:35:00,48.3,47.0,29.71,West,266,2.0,9.0,94,0.02,,,0.08,weatherlink.com 1.10,2013-11-27 18:35:00,
2013-11-27 13:50:00,48.5,47.0,29.71,WNW,291,1.0,3.0,94,0.00,,,0.08,weatherlink.com 1.10,2013-11-27 18:50:00,
2013-11-27 14:05:00,49.0,47.0,29.73,SSW,207,1.0,5.0,94,0.00,,,0.08,weatherlink.com 1.10,2013-11-27 19:05:00,
2013-11-27 14:20:00,49.0,47.0,29.74,SW,220,0.0,5.0,93,0.00,,,0.08,weatherlink.com 1.10,2013-11-27 19:20:00,
2013-11-27 14:35:00,48.8,47.0,29.75,WSW,253,1.0,4.0,94,0.00,,,0.08,weatherlink.com 1.10,2013-11-27 19:35:00,
2013-11-27 14:50:00,48.0,47.0,29.77,NE,40,2.0,5.0,95,0.00,,,0.08,weatherlink.com 1.10,2013-11-27 19:50:00,
2013-11-27 15:05:00,47.5,46.0,29.79,NW,309,2.0,11.0,95,0.00,,,0.08,weatherlink.com 1.10,2013-11-27 20:05:00,
2013-11-27 15:20:00,47.0,45.0,29.80,West,262,2.0,7.0,94,0.00,,,0.08,weatherlink.com 1.10,2013-11-27 20:20:00,
2013-11-27 15:35:00,46.5,45.0,29.82,SW,215,3.0,6.0,93,0.00,,,0.08,weatherlink.com 1.10,2013-11-27 20:35:00,
2013-11-27 15:50:00,46.1,44.0,29.83,NW,309,2.0,6.0,92,0.00,,,0.08,weatherlink.com 1.10,2013-11-27 20:50:00,
2013-11-27 16:05:00,45.8,43.0,29.84,NW,315,3.0,8.0,90,0.00,,,0.08,weatherlink.com 1.10,2013-11-27 21:05:00,
2013-11-27 16:20:00,45.0,42.0,29.86,SSW,210,2.0,9.0,89,0.00,,,0.08,weatherlink.com 1.10,2013-11-27 21:20:00,
2013-11-27 16:35:00,44.4,41.0,29.88,NNE,13,1.0,9.0,89,0.00,,,0.08,weatherlink.com 1.10,2013-11-27 21:35:00,
2013-11-27 16:50:00,43.8,41.0,29.89,WSW,240,1.0,7.0,89,0.00,,,0.08,weatherlink.com 1.10,2013-11-27 21:50:00,
2013-11-27 17:05:00,43.5,41.0,29.91,NW,317,1.0,5.0,89,0.00,,,0.08,weatherlink.com 1.10,2013-11-27 22:05:00,
2013-11-27 17:20:00,43.2,40.0,29.92,ENE,74,5.0,5.0,89,0.00,,,0.08,weatherlink.com 1.10,2013-11-27 22:20:00,
2013-11-27 17:35:00,42.7,40.0,29.93,NW,314,1.0,8.0,89,0.00,,,0.08,weatherlink.com 1.10,2013-11-27 22:35:00,
2013-11-27 17:50:00,42.4,40.0,29.95,NW,321,0.0,4.0,90,0.00,,,0.08,weatherlink.com 1.10,2013-11-27 22:50:00,
2013-11-27 18:06:00,42.2,40.0,29.97,West,260,1.0,5.0,90,0.00,,,0.08,weatherlink.com 1.10,2013-11-27 23:06:00,
2013-11-27 18:21:00,42.2,40.0,29.99,SW,236,1.0,5.0,90,0.00,,,0.08,weatherlink.com 1.10,2013-11-27 23:21:00,
2013-11-27 18:36:00,42.1,39.0,30.01,WNW,303,1.0,4.0,89,0.00,,,0.08,weatherlink.com 1.10,2013-11-27 23:36:00,
2013-11-27 18:51:00,41.5,39.0,30.02,SW,226,1.0,2.0,90,0.00,,,0.08,weatherlink.com 1.10,2013-11-27 23:51:00,
2013-11-27 19:06:00,40.8,38.0,30.03,SW,231,0.0,1.0,91,0.00,,,0.08,weatherlink.com 1.10,2013-11-28 00:06:00,
2013-11-27 19:21:00,40.1,38.0,30.04,South,186,0.0,1.0,92,0.00,,,0.08,weatherlink.com 1.10,2013-11-28 00:21:00,
2013-11-27 19:36:00,39.8,38.0,30.05,WSW,240,0.0,1.0,93,0.00,,,0.08,weatherlink.com 1.10,2013-11-28 00:36:00,
2013-11-27 19:51:00,39.3,38.0,30.07,SW,229,0.0,1.0,94,0.00,,,0.08,weatherlink.com 1.10,2013-11-28 00:51:00,
2013-11-27 20:06:00,39.3,38.0,30.08,WSW,253,0.0,2.0,95,0.00,,,0.08,weatherlink.com 1.10,2013-11-28 01:06:00,
2013-11-27 20:36:00,39.0,38.0,30.10,WNW,287,0.0,1.0,95,0.00,,,0.08,weatherlink.com 1.10,2013-11-28 01:36:00,
2013-11-27 20:51:00,38.7,37.0,30.10,West,262,0.0,1.0,95,0.00,,,0.08,weatherlink.com 1.10,2013-11-28 01:51:00,
2013-11-27 21:06:00,38.6,38.0,30.11,WNW,294,0.0,1.0,96,0.00,,,0.08,weatherlink.com 1.10,2013-11-28 02:06:00,
2013-11-27 21:21:00,38.5,38.0,30.12,West,281,0.0,1.0,96,0.00,,,0.08,weatherlink.com 1.10,2013-11-28 02:21:00,
2013-11-27 21:36:00,38.2,37.0,30.13,West,281,0.0,1.0,96,0.00,,,0.08,weatherlink.com 1.10,2013-11-28 02:36:00,
2013-11-27 21:51:00,37.9,37.0,30.14,West,281,0.0,1.0,96,0.00,,,0.08,weatherlink.com 1.10,2013-11-28 02:51:00,
2013-11-27 22:06:00,37.8,37.0,30.15,SSW,206,0.0,1.0,97,0.00,,,0.08,weatherlink.com 1.10,2013-11-28 03:06:00,
2013-11-27 22:21:00,37.9,37.0,30.16,NW,325,1.0,2.0,97,0.00,,,0.08,weatherlink.com 1.10,2013-11-28 03:21:00,
2013-11-27 22:36:00,37.8,37.0,30.16,SW,236,0.0,1.0,97,0.00,,,0.08,weatherlink.com 1.10,2013-11-28 03:36:00,
2013-11-27 22:51:00,37.5,37.0,30.17,SSW,197,0.0,2.0,97,0.00,,,0.08,weatherlink.com 1.10,2013-11-28 03:51:00,
2013-11-27 23:07:00,36.5,36.0,30.18,NW,309,1.0,6.0,96,0.00,,,0.08,weatherlink.com 1.10,2013-11-28 04:07:00,
2013-11-27 23:22:00,35.6,34.0,30.20,SW,236,1.0,5.0,94,0.00,,,0.08,weatherlink.com 1.10,2013-11-28 04:22:00,
2013-11-27 23:37:00,35.1,32.0,30.21,South,181,1.0,4.0,89,0.00,,,0.08,weatherlink.com 1.10,2013-11-28 04:37:00,
2013-11-27 23:52:00,34.4,31.0,30.22,East,97,2.0,2.0,86,0.00,,,0.08,weatherlink.com 1.10,2013-11-28 04:52:00,